EW5297 Weather Reports


time (UTC)temp
F
wind
direction
speed
knots
gust
knots
rain 1hr
in
rain 24hr
in
rain mn
in
humidity
%
barometer
mb
20260510044816 69 176 3.5 6.1 0.00 0.00 0.00 64
20260510043313 70 150 1.7 3.5 0.00 0.00 0.00 63
20260510041816 70 153 1.7 7.0 0.00 0.00 0.00 62
20260510040312 70 138 1.7 5.2 0.00 0.00 0.00 61
20260510034828 70 144 1.7 3.5 0.00 0.00 0.00 61
20260510033328 71 155 1.7 7.8 0.00 0.00 0.00 59
20260510031824 71 159 1.7 4.3 0.00 0.00 0.00 59
20260510030325 71 137 1.7 3.5 0.00 0.00 0.00 60
20260510024822 71 167 1.7 4.3 0.00 0.00 0.00 60
20260510023321 71 143 1.7 4.3 0.00 0.00 0.00 61
20260510021825 70 39 0.9 2.6 0.00 0.00 0.00 62
20260510020324 71 140 1.7 4.3 0.00 0.00 0.00 62
20260510014828 70 141 0.9 7.0 0.00 0.00 0.00 60
20260510013347 70 144 2.6 7.0 0.00 0.00 0.00 60
20260510011826 69 138 1.7 3.5 0.00 0.00 0.00 63
20260510010330 68 215 0.9 4.3 0.00 0.00 0.00 66
20260510004828 69 156 0.9 2.6 0.00 0.00 0.00 67
20260510003311 67 134 1.7 6.1 0.00 0.00 0.00 68
20260510001852 66 144 0.9 3.5 0.00 0.00 0.00 74
20260510000329 65 146 0.9 2.6 0.00 0.00 0.00 81
20260509234852 62 144 0.9 2.6 0.00 0.00 0.00 92
20260509233328 61 57 0.0 0.0 0.00 0.00 0.00 94
20260509231826 60 57 0.0 0.0 0.00 0.00 0.00 94
20260509230328 59 57 0.0 0.9 0.00 0.00 0.00 94
20260509224827 58 360 0.0 0.0 0.00 0.00 0.00 94
20260509223348 57 360 0.0 0.0 0.00 0.00 0.00 94
20260509221825 57 360 0.9 1.7 0.00 0.00 0.00 94
20260509220322 55 21 0.0 0.0 0.00 0.00 0.00 94
20260509214846 55 21 0.0 0.0 0.00 0.00 0.00 94
20260509213322 54 349 0.0 0.0 0.00 0.00 0.00 93
20260509211817 54 349 0.0 0.0 0.00 0.00 0.00 93
20260509210316 54 349 0.0 0.0 0.00 0.00 0.00 93
20260509204813 53 349 0.0 0.0 0.00 0.00 0.00 93
20260509203312 54 349 0.0 0.0 0.00 0.00 0.00 93
20260509201851 54 349 0.0 0.0 0.00 0.00 0.00 93
20260509200325 54 349 0.0 0.0 0.00 0.00 0.00 93
20260509194829 54 349 0.0 0.0 0.00 0.00 0.00 94
20260509193325 53 349 0.0 0.0 0.00 0.00 0.00 93
20260509191823 52 349 0.0 0.0 0.00 0.00 0.00 93
20260509190342 52 349 0.0 0.0 0.00 0.00 0.00 93
20260509184820 53 349 0.0 0.0 0.00 0.00 0.00 93
20260509183322 53 349 0.0 0.0 0.00 0.00 0.00 93
20260509181819 53 349 0.0 0.0 0.00 0.00 0.00 93
20260509180318 53 349 0.0 0.0 0.00 0.00 0.00 93
20260509174820 53 349 0.0 0.0 0.00 0.00 0.00 93
20260509173338 53 349 0.0 0.0 0.00 0.00 0.00 93
20260509171819 53 349 0.0 0.0 0.00 0.00 0.00 93
20260509170317 53 349 0.0 0.0 0.00 0.00 0.00 93
20260509164814 52 349 0.0 0.0 0.00 0.00 0.00 93
20260509163335 53 349 0.0 0.0 0.00 0.00 0.00 93
20260509161812 52 349 0.0 0.0 0.00 0.00 0.00 93
20260509160311 53 349 0.0 0.0 0.00 0.00 0.00 93
20260509154836 52 349 0.0 0.0 0.00 0.00 0.00 92
20260509153337 53 349 0.0 0.0 0.00 0.00 0.00 92
20260509151840 53 349 0.0 0.0 0.00 0.00 0.00 92
20260509150321 53 349 0.0 0.0 0.00 0.00 0.00 92
20260509144817 53 349 0.0 0.0 0.00 0.00 0.00 92
20260509143319 53 349 0.0 0.0 0.00 0.00 0.00 93
20260509141839 53 349 0.0 0.0 0.00 0.00 0.00 93
20260509140318 52 349 0.0 0.0 0.00 0.00 0.00 92
20260509134818 52 349 0.0 0.0 0.00 0.00 0.00 92
20260509133313 52 349 0.0 0.0 0.00 0.00 0.00 92
20260509131815 52 349 0.0 1.7 0.00 0.00 0.00 92
20260509130313 52 349 0.0 1.7 0.00 0.00 0.00 92
20260509124811 52 349 0.0 0.9 0.00 0.00 0.00 91
20260509123333 52 349 0.0 0.0 0.00 0.00 0.00 91
20260509121830 52 349 0.0 0.0 0.00 0.00 0.00 91
20260509120324 52 349 0.0 0.0 0.00 0.00 0.00 91
20260509114824 52 349 0.0 0.0 0.00 0.00 0.00 91
20260509113322 52 349 0.0 0.0 0.00 0.00 0.00 91
20260509111823 52 349 0.0 0.0 0.00 0.00 0.00 91
20260509110321 53 349 0.0 0.0 0.00 0.00 0.00 91
20260509104818 53 349 0.0 0.0 0.00 0.00 0.00 90
20260509103319 53 349 0.0 0.0 0.00 0.00 0.00 90
20260509101816 53 349 0.0 0.0 0.00 0.00 0.00 90
20260509100317 54 349 0.0 0.0 0.00 0.00 0.00 90
20260509094813 54 349 0.0 1.7 0.00 0.00 0.00 90
20260509093311 54 349 0.0 0.9 0.00 0.00 0.00 89
20260509091811 54 349 0.0 1.7 0.00 0.00 0.00 89
20260509090309 55 349 0.0 0.0 0.00 0.00 0.00 89
20260509084826 55 349 0.0 0.0 0.00 0.00 0.00 88
20260509083328 55 349 0.0 0.0 0.00 0.00 0.00 88
20260509081826 56 349 0.0 0.0 0.00 0.00 0.00 87
20260509080327 56 349 0.0 0.0 0.00 0.00 0.00 87
20260509074845 57 349 0.9 0.9 0.00 0.00 0.00 85
20260509073321 57 349 0.0 0.9 0.00 0.00 0.00 84
20260509071819 58 349 0.9 0.9 0.00 0.00 0.00 83
20260509070317 59 349 0.9 0.9 0.00 0.00 0.00 81
20260509064814 61 349 0.9 0.9 0.00 0.00 0.00 78
20260509063335 63 349 0.9 1.7 0.00 0.00 0.00 74
20260509061833 65 161 0.0 1.7 0.00 0.00 0.00 71
20260509060312 67 161 0.0 0.0 0.00 0.00 0.00 68
20260509054830 67 161 0.0 1.7 0.00 0.00 0.00 63
20260509053326 68 165 0.0 1.7 0.00 0.00 0.00 62
20260509051828 68 165 0.0 2.6 0.00 0.00 0.00 61
20260509050346 68 145 1.7 3.5 0.00 0.00 0.00 60